Regional Weather Roundup
Issued by NWS State College, PA

Home | Current Version | Previous Version | Text Only | Print | Product List | Glossary Off
Versions: 1 2 3 4 5 6 7 8 9 10 11 12 13 14 15 16 17 18 19 20 21 22 23 24 25 26 27 28 29 30 31 32 33 34 35 36 37 38 39 40 41 42 43 44 45 46 47 48 49 50

000
ASUS41 KCTP 210403
RWRCTP

REGIONAL WEATHER ROUNDUP
NATIONAL WEATHER SERVICE STATE COLLEGE PA
1200 AM EDT SAT OCT 21 2017

Note: "fair" indicates few or no clouds below 12,000 feet with no
significant weather and/or obstructions to visibility.

* = STATION THAT DOES NOT REPORT PRECIPITATION /E.G. RAIN...SNOW...ETC/
    THUNDER OR FOG.

PAZ002>004-007>009-013>016-020>023-029>032-210500-
WESTERN PENNSYLVANIA

CITY           SKY/WX    TMP DP  RH WIND       PRES   REMARKS
ERIE           PTCLDY    51  40  65 CALM      30.21S
MEADVILLE      CLEAR     57  35  43 VRB5      30.25S
FRANKLIN*      CLEAR     52  35  52 S5        30.27R
NEW CASTLE     FAIR      46  41  82 CALM      30.26S
BEAVER COUNTY  NOT AVBL
BUTLER*        CLEAR     44  39  82 N5        30.27S
PITTSBURGH INT CLEAR     53  40  61 CALM      30.26S
PITTSBURGH     CLEAR     56  38  50 SE6       30.26S
INDIANA*       MOCLDY    45  41  87 E3        30.30F
LATROBE        CLEAR     46  41  81 CALM      30.28S
WASHINGTON CO* CLEAR     46  41  82 CALM      30.29S
$$

PAZ004>006-010>012-017>019-024>028-033>037-041-042-045-046-049>053-210500-
CENTRAL PENNSYLVANIA

CITY           SKY/WX    TMP DP  RH WIND       PRES   REMARKS
BRADFORD       CLEAR     41  37  86 CALM      30.27R
DUBOIS           N/A    N/A N/A N/A MISG      30.27R
CLEARFIELD     CLEAR     48  38  68 CALM      30.28R
JOHNSTOWN      CLEAR     53  34  48 SW6       30.30R
ALTOONA        CLEAR     49  40  71 S3        30.28S
STATE COLLEGE  PTCLDY    51  39  64 CALM      30.27S
WILLIAMSPORT   CLEAR     46  42  86 W3        30.26R
SELINSGROVE    CLEAR     44  43  96 CALM      30.27R
FT INDIANTOWN  CLEAR     45  44  94 CALM      30.25R
CAPITAL CITY   CLEAR     50  44  80 W3        30.26R
HARRISBURG     CLEAR     50  46  86 CALM      30.25R
YORK           CLEAR     43  43 100 CALM      30.26R
$$

PAZ038>040-043-044-047-048-054-055-060>062-067>071-210500-
EASTERN PENNSYLVANIA

CITY           SKY/WX    TMP DP  RH WIND       PRES   REMARKS
SCRANTON       CLEAR     50  36  58 E8        30.25S
MOUNT POCONO   CLEAR     45  34  65 CALM      30.25S
ALLENTOWN      CLEAR     50  40  68 W5        30.25R
QUAKERTOWN*    CLEAR     45  41  87 CALM      30.26R
READING        CLEAR     49  45  86 CALM      30.25R
LANCASTER      CLEAR     50  43  77 CALM      30.26R
COATESVILLE    CLEAR     55  37  50 NW5       30.27R
POTTSTOWN      CLEAR     47  42  83 CALM      30.26R
BLUE BELL      CLEAR     43  43 100 CALM      30.27R
DOYLESTOWN     CLEAR     49  42  77 CALM      30.23S
WILLOW GROVE   NOT AVBL
NORTH PHILA    CLEAR     54  44  69 CALM      30.25R
PHILADELPHIA   CLEAR     58  40  51 CALM      30.24R
$$




USA.gov is the U.S. government's official web portal to all federal, state and local government web resources and services.